Regional Weather Roundup
Issued by NWS

Home | Current Version | Previous Version | Text Only | Print | Product List | Glossary On
Versions: 1 2 3 4 5 6 7 8 9 10 11 12 13 14 15 16 17 18 19 20 21 22 23 24 25 26 27 28 29 30 31 32 33 34 35 36 37 38 39 40 41 42 43 44 45 46 47 48 49 50
000
ASUS44 KLIX 291310
RWRLA
LOUISIANA WEATHER ROUNDUP
NATIONAL WEATHER SERVICE NEW ORLEANS LA
700 AM CST MON DEC 29 2014

NOTE: "FAIR" INDICATES FEW OR NO CLOUDS BELOW 12,000 FEET WITH NO
      SIGNIFICANT WEATHER AND/OR OBSTRUCTIONS TO VISIBILITY.
      SKY/WX - SKY CONDITION AND SIGNIFICANT WEATHER.
      TMP - AIR TEMPERATURE.    DP   - DEWPOINT TEMPERATURE.
      RH  - RELATIVE HUMIDITY.  PRES - PRESSURE.
      HX  - HEAT INDEX.         WCI  - WIND CHILL INDEX.

*  THESE STATIONS ARE NOT NWS OR FAA STATIONS AND ARE NOT UNDER
   NWS QUALITY CONTROL.

LAZ040-048-061>063-065-066-069-291400-
SOUTHEAST LOUISIANA

CITY           SKY/WX    TMP DP  RH WIND       PRES   REMARKS
N.O. AUDUBON   NOT AVBL
N.O. INTL ARPT CLOUDY    55  53  93 N5        30.13R
N.O. LAKEFRONT CLOUDY    57  53  86 NW7       30.13R
N.O. DOWNTOWN* CLOUDY    55  52  88 NW3       30.13R
SLIDELL        CLOUDY    54  52  93 NW5       30.12R
BATON ROUGE    CLOUDY    50  48  93 N3        30.12S
BOOTHVILLE     CLOUDY    59  58  96 NW5       30.10R
BELLE CHASSE   LGT RAIN  56  55  97 CALM      30.12R VSB 1/4
BOGALUSA*        N/A     53  50  90 N6        30.15R
GALLIANO*      CLOUDY    55  55  99 MISG      30.12R FOG
NEW ROADS*     CLOUDY    47  47  98 N3        30.14R FOG
GONZALES*      CLOUDY    52  52 100 N3        30.12R
HAMMOND*       NOT AVBL
HOUMA*         FOG       55  55 100 CALM      30.12R VSB 3/4
PORT FOURCHON* CLOUDY    61  59  94 N6        30.14R FOG

$$

LAZ041-044-053-054-291400-
SOUTHWEST LOUISIANA

CITY           SKY/WX    TMP DP  RH WIND       PRES   REMARKS
LAKE CHARLES   CLOUDY    48  47  96 N5        30.14R FOG
LAFAYETTE      CLOUDY    48  47  96 N5        30.13R
PATTERSON      CLOUDY    54  52  94 CALM      30.14R
SALT POINT       N/A     63  52  67 CALM      30.11R
NEW IBERIA     CLOUDY    50  48  93 N6        30.13R
CHENAULT AIRPK NOT AVBL

$$

LAZ027-028-291400-
CENTRAL LOUISIANA

CITY           SKY/WX    TMP DP  RH WIND       PRES   REMARKS
FORT POLK      CLOUDY    44  43  98 N6        30.15R FOG
ALEXANDRIA INT CLOUDY    44  44 100 N5        30.15R FOG
ALEXANDRIA     CLOUDY    44  44 100 CALM      30.16R

$$

LAZ001-002-291400-
NORTHWEST LOUISIANA

CITY           SKY/WX    TMP DP  RH WIND       PRES   REMARKS
SHREVEPORT     CLOUDY    43  41  93 NE7       30.16R
BARKSDALE AFB  CLOUDY    41  41 100 NE6       30.18R
DTN SHREVEPORT CLOUDY    41  40  96 NE3       30.17R FOG

$$

LAZ014-016-291400-
NORTHEAST LOUISIANA

CITY           SKY/WX    TMP DP  RH WIND       PRES   REMARKS
MONROE         CLOUDY    42  32  67 N8        30.19R
TALLULAH       CLOUDY    44  42  93 N7        30.17R FOG

$$



USA.gov is the U.S. government's official web portal to all federal, state and local government web resources and services.